Location: Castle Hill Houses
(40.8186°N, 73.8497°W)
Time: 11:22:46
(UTC+00:00)

ATLAS 2AS CENTAUR R/B - Pass Details

Date: 26 January 2020
Orbit: 929 x 1283 km, 63.7° (Epoch: 08 February)

Event Time Altitude Azimuth Distance (km) Brightness Sun altitude
Exits shadow 09:18:16 64° 190° (S) 1,395 3.1 -32.7°
Maximum altitude 09:19:36 80° 122° (ESE) 1,302 3.0 -32.4°
Drops below altitude 10° 09:27:38 10° 36° (NE) 3,275 5.6 -30.9°
Sets 09:30:26 0° 36° (NE) 4,227 6.3 -30.4°
